Time,TemperatureF,DewpointF,PressureIn,WindDirection,WindDirectionDegrees,WindSpeedMPH,WindSpeedGustMPH,Humidity,HourlyPrecipIn,Conditions,Clouds,dailyrainin,SolarRadiationWatts/m^2,SoftwareType,DateUTC
2013-09-04 00:02:00,67.4,58.4,29.62,West,276,0.0,0.0,73,0.00,,,0.00,0,WeatherCatV1.02B3,2013-09-04 07:02:00,
2013-09-04 00:07:00,67.7,58.7,29.62,West,276,0.0,0.0,73,0.00,,,0.00,0,WeatherCatV1.02B3,2013-09-04 07:07:00,
2013-09-04 00:12:00,67.8,58.8,29.62,West,276,0.0,0.0,73,0.00,,,0.00,0,WeatherCatV1.02B3,2013-09-04 07:12:00,
2013-09-04 00:17:00,67.4,58.4,29.62,West,276,0.0,0.0,73,0.00,,,0.00,0,WeatherCatV1.02B3,2013-09-04 07:17:00,
2013-09-04 00:22:00,67.1,58.1,29.62,West,276,0.0,0.0,73,0.00,,,0.00,0,WeatherCatV1.02B3,2013-09-04 07:22:00,
2013-09-04 00:27:00,67.0,57.7,29.62,West,276,0.0,0.0,72,0.00,,,0.00,0,WeatherCatV1.02B3,2013-09-04 07:27:00,
2013-09-04 00:32:00,67.3,58.3,29.62,West,276,0.0,0.0,73,0.00,,,0.00,0,WeatherCatV1.02B3,2013-09-04 07:32:00,
2013-09-04 00:37:00,67.3,58.3,29.62,West,276,0.0,0.0,73,0.00,,,0.00,0,WeatherCatV1.02B3,2013-09-04 07:37:00,
2013-09-04 00:42:00,67.1,58.5,29.62,West,276,0.0,0.0,74,0.00,,,0.00,0,WeatherCatV1.02B3,2013-09-04 07:42:00,
2013-09-04 00:47:00,66.7,58.1,29.62,West,276,0.0,0.0,74,0.00,,,0.00,0,WeatherCatV1.02B3,2013-09-04 07:47:00,
2013-09-04 00:52:00,66.6,58.0,29.62,West,276,0.0,0.0,74,0.00,,,0.00,0,WeatherCatV1.02B3,2013-09-04 07:52:00,
2013-09-04 00:57:00,66.6,58.0,29.62,West,276,0.0,0.0,74,0.00,,,0.00,0,WeatherCatV1.02B3,2013-09-04 07:57:00,
2013-09-04 01:02:00,66.0,57.1,29.62,West,276,0.0,0.0,73,0.00,,,0.00,0,WeatherCatV1.02B3,2013-09-04 08:02:00,
2013-09-04 01:07:00,66.2,57.7,29.62,West,276,0.0,0.0,74,0.00,,,0.00,0,WeatherCatV1.02B3,2013-09-04 08:07:00,
2013-09-04 01:12:00,66.4,57.5,29.62,West,276,0.0,0.0,73,0.00,,,0.00,0,WeatherCatV1.02B3,2013-09-04 08:12:00,
2013-09-04 01:17:00,66.5,57.9,29.62,West,276,0.0,0.0,74,0.00,,,0.00,0,WeatherCatV1.02B3,2013-09-04 08:17:00,
2013-09-04 01:22:00,66.1,57.6,29.62,West,276,0.0,0.0,74,0.00,,,0.00,0,WeatherCatV1.02B3,2013-09-04 08:22:00,
2013-09-04 01:27:00,65.8,57.6,29.62,West,276,0.0,0.0,75,0.00,,,0.00,0,WeatherCatV1.02B3,2013-09-04 08:27:00,
2013-09-04 01:32:00,66.1,57.2,29.62,West,276,0.0,0.0,73,0.00,,,0.00,0,WeatherCatV1.02B3,2013-09-04 08:32:00,
2013-09-04 01:37:00,66.2,57.3,29.62,West,276,0.0,0.0,73,0.00,,,0.00,0,WeatherCatV1.02B3,2013-09-04 08:37:00,
2013-09-04 01:42:00,66.1,57.2,29.62,West,276,0.0,0.0,73,0.00,,,0.00,0,WeatherCatV1.02B3,2013-09-04 08:42:00,
2013-09-04 01:47:00,66.0,57.1,29.62,West,276,0.0,0.0,73,0.00,,,0.00,0,WeatherCatV1.02B3,2013-09-04 08:47:00,
2013-09-04 01:52:00,65.7,56.8,29.62,West,276,0.0,0.0,73,0.00,,,0.00,0,WeatherCatV1.02B3,2013-09-04 08:52:00,
2013-09-04 01:57:00,65.9,57.0,29.62,West,276,0.0,0.0,73,0.00,,,0.00,0,WeatherCatV1.02B3,2013-09-04 08:57:00,
2013-09-04 02:02:00,66.3,57.4,29.62,West,276,0.0,0.0,73,0.00,,,0.00,0,WeatherCatV1.02B3,2013-09-04 09:02:00,
2013-09-04 02:07:00,66.2,56.9,29.62,West,276,0.0,0.0,72,0.00,,,0.00,0,WeatherCatV1.02B3,2013-09-04 09:07:00,
2013-09-04 02:12:00,65.4,56.5,29.62,West,276,0.0,0.0,73,0.00,,,0.00,0,WeatherCatV1.02B3,2013-09-04 09:12:00,
2013-09-04 02:17:00,65.4,56.9,29.62,West,276,0.0,0.0,74,0.00,,,0.00,0,WeatherCatV1.02B3,2013-09-04 09:17:00,
2013-09-04 02:22:00,65.7,56.8,29.62,West,276,0.0,0.0,73,0.00,,,0.00,0,WeatherCatV1.02B3,2013-09-04 09:22:00,
2013-09-04 02:27:00,65.5,56.6,29.62,West,276,0.0,0.0,73,0.00,,,0.00,0,WeatherCatV1.02B3,2013-09-04 09:27:00,
2013-09-04 02:32:00,65.6,56.3,29.62,West,276,0.0,0.0,72,0.00,,,0.00,0,WeatherCatV1.02B3,2013-09-04 09:32:00,
2013-09-04 02:37:00,65.4,56.5,29.62,West,276,0.0,0.0,73,0.00,,,0.00,0,WeatherCatV1.02B3,2013-09-04 09:37:00,
2013-09-04 02:42:00,64.8,56.3,29.62,West,276,0.0,0.0,74,0.00,,,0.00,0,WeatherCatV1.02B3,2013-09-04 09:42:00,
2013-09-04 02:47:00,65.1,56.2,29.62,West,276,0.0,0.0,73,0.00,,,0.00,0,WeatherCatV1.02B3,2013-09-04 09:47:00,
2013-09-04 02:52:00,65.4,56.1,29.62,West,276,0.0,0.0,72,0.00,,,0.00,0,WeatherCatV1.02B3,2013-09-04 09:52:00,
2013-09-04 02:57:00,65.0,56.1,29.62,West,276,0.0,0.0,73,0.00,,,0.00,0,WeatherCatV1.02B3,2013-09-04 09:57:00,
2013-09-04 03:02:00,65.4,56.9,29.62,West,276,0.0,0.0,74,0.00,,,0.00,0,WeatherCatV1.02B3,2013-09-04 10:02:00,
2013-09-04 03:07:00,64.9,56.0,29.62,West,276,0.0,0.0,73,0.00,,,0.00,0,WeatherCatV1.02B3,2013-09-04 10:07:00,
2013-09-04 03:12:00,64.6,56.5,29.62,West,276,0.0,0.0,75,0.00,,,0.00,0,WeatherCatV1.02B3,2013-09-04 10:12:00,
2013-09-04 03:17:00,65.0,56.9,29.62,West,276,0.0,0.0,75,0.00,,,0.00,0,WeatherCatV1.02B3,2013-09-04 10:17:00,
2013-09-04 03:22:00,64.7,56.6,29.62,West,276,0.0,0.0,75,0.00,,,0.00,0,WeatherCatV1.02B3,2013-09-04 10:22:00,
2013-09-04 03:27:00,64.4,56.3,29.62,West,276,0.0,0.0,75,0.00,,,0.00,0,WeatherCatV1.02B3,2013-09-04 10:27:00,
2013-09-04 03:32:00,64.6,56.5,29.62,West,276,0.0,0.0,75,0.00,,,0.00,0,WeatherCatV1.02B3,2013-09-04 10:32:00,
2013-09-04 03:37:00,64.4,55.9,29.62,West,276,0.0,0.0,74,0.00,,,0.00,0,WeatherCatV1.02B3,2013-09-04 10:37:00,
2013-09-04 03:42:00,64.4,56.3,29.62,West,276,0.0,0.0,75,0.00,,,0.00,0,WeatherCatV1.02B3,2013-09-04 10:42:00,
2013-09-04 03:47:00,64.1,56.4,29.62,West,276,0.0,0.0,76,0.00,,,0.00,0,WeatherCatV1.02B3,2013-09-04 10:47:00,
2013-09-04 03:52:00,64.2,56.1,29.62,West,276,0.0,0.0,75,0.00,,,0.00,0,WeatherCatV1.02B3,2013-09-04 10:52:00,
2013-09-04 03:57:00,64.1,56.4,29.62,West,276,0.0,0.0,76,0.00,,,0.00,0,WeatherCatV1.02B3,2013-09-04 10:57:00,
2013-09-04 04:02:00,64.3,56.6,29.62,West,276,0.0,0.0,76,0.00,,,0.00,0,WeatherCatV1.02B3,2013-09-04 11:02:00,
2013-09-04 04:07:00,64.5,56.4,29.62,West,276,0.0,1.0,75,0.00,,,0.00,0,WeatherCatV1.02B3,2013-09-04 11:07:00,
2013-09-04 04:12:00,64.0,55.9,29.62,West,276,0.0,0.0,75,0.00,,,0.00,0,WeatherCatV1.02B3,2013-09-04 11:12:00,
2013-09-04 04:17:00,64.0,56.3,29.62,West,276,0.0,0.0,76,0.00,,,0.00,0,WeatherCatV1.02B3,2013-09-04 11:17:00,
2013-09-04 04:22:00,63.9,56.2,29.62,West,276,0.0,0.0,76,0.00,,,0.00,0,WeatherCatV1.02B3,2013-09-04 11:22:00,
2013-09-04 04:27:00,63.7,56.0,29.62,West,276,0.0,0.0,76,0.00,,,0.00,0,WeatherCatV1.02B3,2013-09-04 11:27:00,
2013-09-04 04:32:00,63.8,56.1,29.62,West,276,0.0,0.0,76,0.00,,,0.00,0,WeatherCatV1.02B3,2013-09-04 11:32:00,
2013-09-04 04:37:00,63.9,56.2,29.62,West,276,0.0,0.0,76,0.00,,,0.00,0,WeatherCatV1.02B3,2013-09-04 11:37:00,
2013-09-04 04:42:00,63.4,55.7,29.62,West,276,0.0,0.0,76,0.00,,,0.00,0,WeatherCatV1.02B3,2013-09-04 11:42:00,
2013-09-04 04:47:00,63.2,55.9,29.62,West,276,0.0,0.0,77,0.00,,,0.00,0,WeatherCatV1.02B3,2013-09-04 11:47:00,
2013-09-04 04:52:00,63.4,55.7,29.62,West,276,0.0,0.0,76,0.00,,,0.00,0,WeatherCatV1.02B3,2013-09-04 11:52:00,
2013-09-04 04:57:00,63.6,55.9,29.62,West,276,0.0,0.0,76,0.00,,,0.00,0,WeatherCatV1.02B3,2013-09-04 11:57:00,
2013-09-04 05:02:00,63.5,55.8,29.62,West,276,0.0,0.0,76,0.00,,,0.00,0,WeatherCatV1.02B3,2013-09-04 12:02:00,
2013-09-04 05:07:00,62.9,55.2,29.62,West,276,0.0,0.0,76,0.00,,,0.00,0,WeatherCatV1.02B3,2013-09-04 12:07:00,
2013-09-04 05:12:00,62.5,55.5,29.62,West,276,0.0,0.0,78,0.00,,,0.00,0,WeatherCatV1.02B3,2013-09-04 12:12:00,
2013-09-04 05:17:00,62.8,55.8,29.62,West,276,0.0,0.0,78,0.00,,,0.00,0,WeatherCatV1.02B3,2013-09-04 12:17:00,
2013-09-04 05:22:00,63.0,55.7,29.62,West,276,0.0,0.0,77,0.00,,,0.00,0,WeatherCatV1.02B3,2013-09-04 12:22:00,
2013-09-04 05:27:00,62.9,55.6,29.62,West,276,0.0,0.0,77,0.00,,,0.00,0,WeatherCatV1.02B3,2013-09-04 12:27:00,
2013-09-04 05:32:00,62.9,55.9,29.62,West,276,0.0,0.0,78,0.00,,,0.00,0,WeatherCatV1.02B3,2013-09-04 12:32:00,
2013-09-04 05:37:00,62.5,55.5,29.62,West,276,0.0,0.0,78,0.00,,,0.00,0,WeatherCatV1.02B3,2013-09-04 12:37:00,
2013-09-04 05:42:00,62.5,55.9,29.62,West,276,0.0,0.0,79,0.00,,,0.00,0,WeatherCatV1.02B3,2013-09-04 12:42:00,
2013-09-04 05:47:00,62.5,55.5,29.62,West,276,0.0,0.0,78,0.00,,,0.00,0,WeatherCatV1.02B3,2013-09-04 12:47:00,
2013-09-04 05:52:00,62.5,55.9,29.62,West,276,0.0,0.0,79,0.00,,,0.00,0,WeatherCatV1.02B3,2013-09-04 12:52:00,
2013-09-04 05:57:00,62.2,55.3,29.62,West,276,0.0,0.0,78,0.00,,,0.00,0,WeatherCatV1.02B3,2013-09-04 12:57:00,
2013-09-04 06:02:00,62.0,55.8,29.62,West,276,0.0,0.0,80,0.00,,,0.00,0,WeatherCatV1.02B3,2013-09-04 13:02:00,
2013-09-04 06:07:00,62.2,55.9,29.62,West,276,0.0,0.0,80,0.00,,,0.00,0,WeatherCatV1.02B3,2013-09-04 13:07:00,
2013-09-04 06:12:00,62.0,55.4,29.62,West,276,0.0,0.0,79,0.00,,,0.00,0,WeatherCatV1.02B3,2013-09-04 13:12:00,
2013-09-04 06:17:00,61.8,55.6,29.62,West,276,0.0,0.0,80,0.00,,,0.00,0,WeatherCatV1.02B3,2013-09-04 13:17:00,
2013-09-04 06:22:00,61.9,55.7,29.62,West,276,0.0,0.0,80,0.00,,,0.00,0,WeatherCatV1.02B3,2013-09-04 13:22:00,
2013-09-04 06:27:00,62.1,55.9,29.62,West,276,0.0,0.0,80,0.00,,,0.00,0,WeatherCatV1.02B3,2013-09-04 13:27:00,
2013-09-04 06:32:00,61.7,55.1,29.62,West,276,0.0,0.0,79,0.00,,,0.00,0,WeatherCatV1.02B3,2013-09-04 13:32:00,
2013-09-04 06:37:00,61.6,55.4,29.62,West,276,0.0,0.0,80,0.00,,,0.00,5,WeatherCatV1.02B3,2013-09-04 13:37:00,
2013-09-04 06:42:00,62.0,55.8,29.62,West,276,0.0,0.0,80,0.00,,,0.00,7,WeatherCatV1.02B3,2013-09-04 13:42:00,
2013-09-04 06:47:00,62.1,55.9,29.62,West,276,0.0,0.0,80,0.00,,,0.00,9,WeatherCatV1.02B3,2013-09-04 13:47:00,
2013-09-04 06:52:00,62.1,55.9,29.62,West,276,0.0,0.0,80,0.00,,,0.00,11,WeatherCatV1.02B3,2013-09-04 13:52:00,
2013-09-04 06:57:00,61.8,55.6,29.62,West,276,0.0,1.0,80,0.00,,,0.00,12,WeatherCatV1.02B3,2013-09-04 13:57:00,
2013-09-04 07:02:00,62.0,55.8,29.62,NE,36,2.0,2.0,80,0.00,,,0.00,14,WeatherCatV1.02B3,2013-09-04 14:02:00,
2013-09-04 07:07:00,63.3,56.3,29.62,NE,36,0.0,1.0,78,0.00,,,0.00,16,WeatherCatV1.02B3,2013-09-04 14:07:00,
2013-09-04 07:12:00,64.1,56.7,29.62,NE,53,0.0,2.0,77,0.00,,,0.00,16,WeatherCatV1.02B3,2013-09-04 14:12:00,
2013-09-04 07:17:00,64.1,56.0,29.62,NE,53,0.0,1.0,75,0.00,,,0.00,18,WeatherCatV1.02B3,2013-09-04 14:17:00,
2013-09-04 07:22:00,63.4,56.1,29.62,NE,53,0.0,1.0,77,0.00,,,0.00,21,WeatherCatV1.02B3,2013-09-04 14:22:00,
2013-09-04 07:27:00,63.2,56.2,29.62,NE,53,0.0,0.0,78,0.00,,,0.00,21,WeatherCatV1.02B3,2013-09-04 14:27:00,
2013-09-04 07:32:00,63.4,56.4,29.62,NE,53,0.0,0.0,78,0.00,,,0.00,23,WeatherCatV1.02B3,2013-09-04 14:32:00,
2013-09-04 07:37:00,63.6,56.3,29.62,NE,53,0.0,0.0,77,0.00,,,0.00,25,WeatherCatV1.02B3,2013-09-04 14:37:00,
2013-09-04 07:42:00,64.5,56.8,29.62,NE,53,0.0,0.0,76,0.00,,,0.00,25,WeatherCatV1.02B3,2013-09-04 14:42:00,
2013-09-04 07:47:00,65.2,57.1,29.62,NE,53,0.0,0.0,75,0.00,,,0.00,25,WeatherCatV1.02B3,2013-09-04 14:47:00,
2013-09-04 07:52:00,66.1,57.6,29.62,NE,53,0.0,0.0,74,0.00,,,0.00,32,WeatherCatV1.02B3,2013-09-04 14:52:00,
2013-09-04 07:57:00,66.5,57.2,29.62,NE,53,0.0,0.0,72,0.00,,,0.00,26,WeatherCatV1.02B3,2013-09-04 14:57:00,
2013-09-04 08:02:00,66.8,57.5,29.62,NE,53,0.0,0.0,72,0.00,,,0.00,28,WeatherCatV1.02B3,2013-09-04 15:02:00,
2013-09-04 08:07:00,67.8,57.6,29.62,NE,53,0.0,0.0,70,0.00,,,0.00,28,WeatherCatV1.02B3,2013-09-04 15:07:00,
2013-09-04 08:12:00,68.9,57.9,29.62,NE,53,0.0,0.0,68,0.00,,,0.00,28,WeatherCatV1.02B3,2013-09-04 15:12:00,
2013-09-04 08:18:00,69.7,57.8,29.62,NE,53,0.0,0.0,66,0.00,,,0.00,30,WeatherCatV1.02B3,2013-09-04 15:18:00,
2013-09-04 08:22:00,70.6,58.2,29.62,NE,53,0.0,0.0,65,0.00,,,0.00,95,WeatherCatV1.02B3,2013-09-04 15:22:00,
2013-09-04 08:27:00,71.6,58.3,29.62,West,272,0.0,1.0,63,0.00,,,0.00,63,WeatherCatV1.02B3,2013-09-04 15:27:00,
2013-09-04 08:32:00,72.4,58.2,29.62,ESE,102,0.0,2.0,61,0.00,,,0.00,149,WeatherCatV1.02B3,2013-09-04 15:32:00,
2013-09-04 08:37:00,73.3,58.1,29.62,East,98,0.0,2.0,59,0.00,,,0.00,334,WeatherCatV1.02B3,2013-09-04 15:37:00,
2013-09-04 08:42:00,74.3,58.5,29.62,ESE,109,0.0,0.0,58,0.00,,,0.00,348,WeatherCatV1.02B3,2013-09-04 15:42:00,
2013-09-04 08:47:00,75.6,59.3,29.62,ESE,109,0.0,0.0,57,0.00,,,0.00,364,WeatherCatV1.02B3,2013-09-04 15:47:00,
2013-09-04 08:52:00,77.1,58.6,29.62,NW,317,0.0,2.0,53,0.00,,,0.00,380,WeatherCatV1.02B3,2013-09-04 15:52:00,
2013-09-04 08:57:00,77.9,59.4,29.62,WNW,286,0.0,2.0,53,0.00,,,0.00,396,WeatherCatV1.02B3,2013-09-04 15:57:00,
2013-09-04 09:03:00,78.9,59.2,29.62,WSW,244,1.0,1.0,51,0.00,,,0.00,413,WeatherCatV1.02B3,2013-09-04 16:03:00,
2013-09-04 09:08:00,79.9,59.6,29.62,WSW,257,1.0,1.0,50,0.00,,,0.00,427,WeatherCatV1.02B3,2013-09-04 16:08:00,
2013-09-04 09:13:00,80.9,59.9,29.62,South,175,0.0,1.0,49,0.00,,,0.00,445,WeatherCatV1.02B3,2013-09-04 16:13:00,
2013-09-04 09:18:00,81.7,59.5,29.62,SE,142,1.0,2.0,47,0.00,,,0.00,461,WeatherCatV1.02B3,2013-09-04 16:18:00,
2013-09-04 09:23:00,82.5,59.6,29.62,SW,232,0.0,2.0,46,0.00,,,0.00,475,WeatherCatV1.02B3,2013-09-04 16:23:00,
2013-09-04 09:28:00,83.4,59.8,29.62,SW,215,1.0,3.0,45,0.00,,,0.00,489,WeatherCatV1.02B3,2013-09-04 16:28:00,
2013-09-04 09:33:00,84.5,59.5,29.62,West,271,0.0,1.0,43,0.00,,,0.00,504,WeatherCatV1.02B3,2013-09-04 16:33:00,
2013-09-04 09:38:00,84.6,59.6,29.62,SSE,151,0.0,2.0,43,0.00,,,0.00,519,WeatherCatV1.02B3,2013-09-04 16:38:00,
2013-09-04 09:43:00,84.7,60.3,29.62,SSW,207,0.0,1.0,44,0.00,,,0.00,534,WeatherCatV1.02B3,2013-09-04 16:43:00,
2013-09-04 09:48:00,85.8,59.3,29.62,WNW,291,1.0,2.0,41,0.00,,,0.00,548,WeatherCatV1.02B3,2013-09-04 16:48:00,
2013-09-04 09:53:00,86.5,59.3,29.62,West,259,0.0,2.0,40,0.00,,,0.00,563,WeatherCatV1.02B3,2013-09-04 16:53:00,
2013-09-04 09:58:00,87.3,59.3,29.62,West,279,0.0,2.0,39,0.00,,,0.00,573,WeatherCatV1.02B3,2013-09-04 16:58:00,
2013-09-04 10:03:00,87.9,59.8,29.62,West,273,1.0,3.0,39,0.00,,,0.00,587,WeatherCatV1.02B3,2013-09-04 17:03:00,
2013-09-04 10:08:00,88.8,59.1,29.62,WNW,287,1.0,2.0,37,0.00,,,0.00,603,WeatherCatV1.02B3,2013-09-04 17:08:00,
2013-09-04 10:13:00,89.3,58.8,29.62,WNW,285,2.0,3.0,36,0.00,,,0.00,617,WeatherCatV1.02B3,2013-09-04 17:13:00,
2013-09-04 10:18:00,90.4,59.0,29.62,NW,314,2.0,3.0,35,0.00,,,0.00,626,WeatherCatV1.02B3,2013-09-04 17:18:00,
2013-09-04 10:23:00,90.6,59.2,29.62,South,175,1.0,2.0,35,0.00,,,0.00,642,WeatherCatV1.02B3,2013-09-04 17:23:00,
2013-09-04 10:28:00,91.3,59.8,29.62,SE,139,1.0,2.0,35,0.00,,,0.00,650,WeatherCatV1.02B3,2013-09-04 17:28:00,
2013-09-04 10:33:00,91.7,58.5,29.62,NW,315,1.0,1.0,33,0.00,,,0.00,661,WeatherCatV1.02B3,2013-09-04 17:33:00,
2013-09-04 10:38:00,93.1,59.7,29.62,WNW,299,1.0,2.0,33,0.00,,,0.00,673,WeatherCatV1.02B3,2013-09-04 17:38:00,
2013-09-04 10:43:00,93.3,60.7,29.62,NW,307,1.0,4.0,34,0.00,,,0.00,682,WeatherCatV1.02B3,2013-09-04 17:43:00,
2013-09-04 10:48:00,93.3,59.9,29.62,NW,305,1.0,3.0,33,0.00,,,0.00,694,WeatherCatV1.02B3,2013-09-04 17:48:00,
2013-09-04 10:53:00,94.1,60.5,29.62,WNW,288,5.0,8.0,33,0.00,,,0.00,703,WeatherCatV1.02B3,2013-09-04 17:53:00,
2013-09-04 10:58:00,93.8,59.4,29.62,WSW,244,3.0,6.0,32,0.00,,,0.00,714,WeatherCatV1.02B3,2013-09-04 17:58:00,
2013-09-04 11:03:00,94.0,58.7,29.62,NW,311,2.0,4.0,31,0.00,,,0.00,724,WeatherCatV1.02B3,2013-09-04 18:03:00,
2013-09-04 11:08:00,94.9,59.5,29.62,NNW,342,1.0,5.0,31,0.00,,,0.00,731,WeatherCatV1.02B3,2013-09-04 18:08:00,
2013-09-04 11:13:00,95.6,59.2,29.62,West,272,2.0,6.0,30,0.00,,,0.00,738,WeatherCatV1.02B3,2013-09-04 18:13:00,
2013-09-04 11:18:00,95.4,59.0,29.62,North,0,1.0,6.0,30,0.00,,,0.00,751,WeatherCatV1.02B3,2013-09-04 18:18:00,
2013-09-04 11:23:00,94.6,58.3,29.62,NNW,331,0.0,5.0,30,0.00,,,0.00,758,WeatherCatV1.02B3,2013-09-04 18:23:00,
2013-09-04 11:28:00,95.0,58.6,29.62,WNW,283,4.0,5.0,30,0.00,,,0.00,766,WeatherCatV1.02B3,2013-09-04 18:28:00,
2013-09-04 11:33:00,95.0,57.7,29.62,WNW,283,3.0,9.0,29,0.00,,,0.00,773,WeatherCatV1.02B3,2013-09-04 18:33:00,
2013-09-04 11:38:00,96.1,59.6,29.62,West,273,3.0,6.0,30,0.00,,,0.00,780,WeatherCatV1.02B3,2013-09-04 18:38:00,
2013-09-04 11:43:00,96.0,59.5,29.62,West,279,5.0,7.0,30,0.00,,,0.00,786,WeatherCatV1.02B3,2013-09-04 18:43:00,
2013-09-04 11:48:00,96.6,59.1,29.62,ESE,109,1.0,4.0,29,0.00,,,0.00,793,WeatherCatV1.02B3,2013-09-04 18:48:00,
2013-09-04 11:53:00,97.2,59.6,29.62,WNW,283,5.0,6.0,29,0.00,,,0.00,800,WeatherCatV1.02B3,2013-09-04 18:53:00,
2013-09-04 11:58:00,97.2,59.6,29.62,West,278,3.0,5.0,29,0.00,,,0.00,807,WeatherCatV1.02B3,2013-09-04 18:58:00,
2013-09-04 12:03:00,97.3,59.7,29.62,WSW,245,3.0,6.0,29,0.00,,,0.00,809,WeatherCatV1.02B3,2013-09-04 19:03:00,
2013-09-04 12:08:00,97.4,59.7,29.62,SW,216,1.0,5.0,29,0.00,,,0.00,814,WeatherCatV1.02B3,2013-09-04 19:08:00,
2013-09-04 12:13:00,98.2,58.4,29.62,East,98,0.0,5.0,27,0.00,,,0.00,819,WeatherCatV1.02B3,2013-09-04 19:13:00,
2013-09-04 12:18:00,98.5,59.7,29.62,NNE,14,0.0,3.0,28,0.00,,,0.00,821,WeatherCatV1.02B3,2013-09-04 19:18:00,
2013-09-04 12:23:00,98.8,58.9,29.62,East,84,3.0,5.0,27,0.00,,,0.00,824,WeatherCatV1.02B3,2013-09-04 19:23:00,
2013-09-04 12:28:00,98.7,57.8,29.62,ESE,111,0.0,2.0,26,0.00,,,0.00,830,WeatherCatV1.02B3,2013-09-04 19:28:00,
2013-09-04 12:33:00,98.6,58.8,29.62,NNE,12,0.0,6.0,27,0.00,,,0.00,828,WeatherCatV1.02B3,2013-09-04 19:33:00,
2013-09-04 12:38:00,98.6,57.7,29.62,SE,132,0.0,2.0,26,0.00,,,0.00,835,WeatherCatV1.02B3,2013-09-04 19:38:00,
2013-09-04 12:43:00,98.7,57.8,29.62,ENE,72,2.0,3.0,26,0.00,,,0.00,835,WeatherCatV1.02B3,2013-09-04 19:43:00,
2013-09-04 12:48:00,99.0,59.1,29.62,SSE,162,2.0,4.0,27,0.00,,,0.00,837,WeatherCatV1.02B3,2013-09-04 19:48:00,
2013-09-04 12:53:00,98.0,59.3,29.62,WNW,302,4.0,8.0,28,0.00,,,0.00,837,WeatherCatV1.02B3,2013-09-04 19:53:00,
2013-09-04 12:58:00,97.3,57.7,29.62,ENE,65,4.0,6.0,27,0.00,,,0.00,838,WeatherCatV1.02B3,2013-09-04 19:58:00,
2013-09-04 13:03:00,96.6,58.1,29.62,South,188,2.0,6.0,28,0.00,,,0.00,837,WeatherCatV1.02B3,2013-09-04 20:03:00,
2013-09-04 13:08:00,96.2,59.7,29.62,NW,323,3.0,5.0,30,0.00,,,0.00,833,WeatherCatV1.02B3,2013-09-04 20:08:00,
2013-09-04 13:13:00,96.7,58.2,29.62,WNW,299,3.0,6.0,28,0.00,,,0.00,833,WeatherCatV1.02B3,2013-09-04 20:13:00,
2013-09-04 13:18:00,97.6,57.9,29.62,NNW,331,4.0,5.0,27,0.00,,,0.00,833,WeatherCatV1.02B3,2013-09-04 20:18:00,
2013-09-04 13:23:00,98.4,58.6,29.62,SSE,164,2.0,4.0,27,0.00,,,0.00,830,WeatherCatV1.02B3,2013-09-04 20:23:00,
2013-09-04 13:28:00,97.4,57.8,29.62,NW,309,3.0,5.0,27,0.00,,,0.00,828,WeatherCatV1.02B3,2013-09-04 20:28:00,
2013-09-04 13:33:00,98.1,57.3,29.62,NE,42,2.0,7.0,26,0.00,,,0.00,826,WeatherCatV1.02B3,2013-09-04 20:33:00,
2013-09-04 13:38:00,98.3,57.5,29.62,NNE,13,1.0,6.0,26,0.00,,,0.00,823,WeatherCatV1.02B3,2013-09-04 20:38:00,
2013-09-04 13:43:00,97.8,58.1,29.62,WNW,296,0.0,1.0,27,0.00,,,0.00,823,WeatherCatV1.02B3,2013-09-04 20:43:00,
2013-09-04 13:48:00,99.3,59.4,29.62,NE,36,1.0,4.0,27,0.00,,,0.00,814,WeatherCatV1.02B3,2013-09-04 20:48:00,
2013-09-04 13:53:00,99.2,59.3,29.62,West,281,2.0,5.0,27,0.00,,,0.00,812,WeatherCatV1.02B3,2013-09-04 20:53:00,
2013-09-04 13:58:00,98.9,60.0,29.62,North,11,1.0,3.0,28,0.00,,,0.00,807,WeatherCatV1.02B3,2013-09-04 20:58:00,
2013-09-04 14:03:00,99.1,59.2,29.62,NNW,331,1.0,6.0,27,0.00,,,0.00,802,WeatherCatV1.02B3,2013-09-04 21:03:00,
2013-09-04 14:08:00,98.6,58.8,29.62,NW,315,2.0,4.0,27,0.00,,,0.00,795,WeatherCatV1.02B3,2013-09-04 21:08:00,
2013-09-04 14:13:00,98.2,59.4,29.62,WNW,301,3.0,4.0,28,0.00,,,0.00,789,WeatherCatV1.02B3,2013-09-04 21:13:00,
2013-09-04 14:18:00,97.7,59.0,29.62,NNW,334,1.0,5.0,28,0.00,,,0.00,784,WeatherCatV1.02B3,2013-09-04 21:18:00,
2013-09-04 14:23:00,97.9,59.2,29.62,SSE,152,1.0,4.0,28,0.00,,,0.00,773,WeatherCatV1.02B3,2013-09-04 21:23:00,
2013-09-04 14:28:00,98.1,59.4,29.62,West,259,3.0,8.0,28,0.00,,,0.00,765,WeatherCatV1.02B3,2013-09-04 21:28:00,
2013-09-04 14:33:00,98.4,58.6,29.62,WNW,290,6.0,6.0,27,0.00,,,0.00,759,WeatherCatV1.02B3,2013-09-04 21:33:00,
2013-09-04 14:38:00,98.7,59.9,29.62,WNW,298,7.0,10.0,28,0.00,,,0.00,751,WeatherCatV1.02B3,2013-09-04 21:38:00,
2013-09-04 14:43:00,97.9,60.2,29.62,West,274,6.0,10.0,29,0.00,,,0.00,744,WeatherCatV1.02B3,2013-09-04 21:43:00,
2013-09-04 14:48:00,97.9,59.2,29.62,West,267,7.0,11.0,28,0.00,,,0.00,733,WeatherCatV1.02B3,2013-09-04 21:48:00,
2013-09-04 14:53:00,97.1,59.5,29.62,West,271,8.0,10.0,29,0.00,,,0.00,722,WeatherCatV1.02B3,2013-09-04 21:53:00,
2013-09-04 14:58:00,96.4,59.8,29.62,West,273,6.0,12.0,30,0.00,,,0.00,712,WeatherCatV1.02B3,2013-09-04 21:58:00,
2013-09-04 15:03:00,97.0,58.4,29.62,WNW,302,3.0,9.0,28,0.00,,,0.00,703,WeatherCatV1.02B3,2013-09-04 22:03:00,
2013-09-04 15:08:00,96.8,58.3,29.62,WSW,258,8.0,11.0,28,0.00,,,0.00,694,WeatherCatV1.02B3,2013-09-04 22:08:00,
2013-09-04 15:13:00,96.7,58.2,29.62,SSW,204,5.0,8.0,28,0.00,,,0.00,680,WeatherCatV1.02B3,2013-09-04 22:13:00,
2013-09-04 15:18:00,96.6,57.1,29.62,West,276,7.0,11.0,27,0.00,,,0.00,673,WeatherCatV1.02B3,2013-09-04 22:18:00,
2013-09-04 15:23:00,96.9,57.3,29.62,West,273,4.0,10.0,27,0.00,,,0.00,664,WeatherCatV1.02B3,2013-09-04 22:23:00,
2013-09-04 15:28:00,96.9,56.3,29.62,WNW,284,2.0,6.0,26,0.00,,,0.00,650,WeatherCatV1.02B3,2013-09-04 22:28:00,
2013-09-04 15:33:00,96.5,57.0,29.62,WNW,296,7.0,11.0,27,0.00,,,0.00,642,WeatherCatV1.02B3,2013-09-04 22:33:00,
2013-09-04 15:38:00,96.6,57.1,29.62,WSW,254,6.0,9.0,27,0.00,,,0.00,628,WeatherCatV1.02B3,2013-09-04 22:38:00,
2013-09-04 15:43:00,96.8,57.2,29.62,NW,317,5.0,7.0,27,0.00,,,0.00,613,WeatherCatV1.02B3,2013-09-04 22:43:00,
2013-09-04 15:48:00,96.6,56.0,29.62,WNW,288,3.0,10.0,26,0.00,,,0.00,601,WeatherCatV1.02B3,2013-09-04 22:48:00,
2013-09-04 15:53:00,96.9,57.3,29.62,WSW,246,3.0,4.0,27,0.00,,,0.00,589,WeatherCatV1.02B3,2013-09-04 22:53:00,
2013-09-04 15:58:00,96.9,56.3,29.62,WSW,255,6.0,6.0,26,0.00,,,0.00,578,WeatherCatV1.02B3,2013-09-04 22:58:00,
2013-09-04 16:03:00,96.8,56.2,29.62,WSW,250,5.0,11.0,26,0.00,,,0.00,566,WeatherCatV1.02B3,2013-09-04 23:03:00,
2013-09-04 16:08:00,96.4,55.9,29.62,NW,305,6.0,7.0,26,0.00,,,0.00,550,WeatherCatV1.02B3,2013-09-04 23:08:00,
2013-09-04 16:13:00,96.9,56.3,29.62,West,267,9.0,9.0,26,0.00,,,0.00,533,WeatherCatV1.02B3,2013-09-04 23:13:00,
2013-09-04 16:18:00,96.3,55.8,29.62,West,280,3.0,6.0,26,0.00,,,0.00,522,WeatherCatV1.02B3,2013-09-04 23:18:00,
2013-09-04 16:23:00,96.4,56.9,29.62,West,278,4.0,4.0,27,0.00,,,0.00,506,WeatherCatV1.02B3,2013-09-04 23:23:00,
2013-09-04 16:28:00,96.9,56.3,29.62,SW,236,3.0,7.0,26,0.00,,,0.00,492,WeatherCatV1.02B3,2013-09-04 23:28:00,
2013-09-04 16:33:00,95.7,56.3,29.62,WSW,248,6.0,6.0,27,0.00,,,0.00,482,WeatherCatV1.02B3,2013-09-04 23:33:00,
2013-09-04 16:38:00,95.6,58.2,29.62,West,277,3.0,4.0,29,0.00,,,0.00,464,WeatherCatV1.02B3,2013-09-04 23:38:00,
2013-09-04 16:43:00,95.1,58.7,29.62,WNW,283,5.0,8.0,30,0.00,,,0.00,455,WeatherCatV1.02B3,2013-09-04 23:43:00,
2013-09-04 16:48:00,94.5,59.1,29.62,West,262,4.0,10.0,31,0.00,,,0.00,432,WeatherCatV1.02B3,2013-09-04 23:48:00,
2013-09-04 16:53:00,94.7,60.2,29.62,WNW,298,2.0,3.0,32,0.00,,,0.00,418,WeatherCatV1.02B3,2013-09-04 23:53:00,
2013-09-04 16:58:00,94.7,59.3,29.62,NW,313,1.0,4.0,31,0.00,,,0.00,401,WeatherCatV1.02B3,2013-09-04 23:58:00,
2013-09-04 17:03:00,94.5,60.9,29.62,North,0,1.0,1.0,33,0.00,,,0.00,383,WeatherCatV1.02B3,2013-09-05 00:03:00,
2013-09-04 17:08:00,94.1,59.7,29.62,NNW,330,1.0,5.0,32,0.00,,,0.00,373,WeatherCatV1.02B3,2013-09-05 00:08:00,
2013-09-04 17:13:00,93.8,58.5,29.62,NNW,336,1.0,3.0,31,0.00,,,0.00,355,WeatherCatV1.02B3,2013-09-05 00:13:00,
2013-09-04 17:18:00,93.5,59.2,29.62,West,273,3.0,5.0,32,0.00,,,0.00,339,WeatherCatV1.02B3,2013-09-05 00:18:00,
2013-09-04 17:23:00,93.1,58.8,29.62,WNW,291,3.0,4.0,32,0.00,,,0.00,322,WeatherCatV1.02B3,2013-09-05 00:23:00,
2013-09-04 17:28:00,92.8,59.4,29.62,WNW,303,0.0,2.0,33,0.00,,,0.00,306,WeatherCatV1.02B3,2013-09-05 00:28:00,
2013-09-04 17:33:00,92.4,58.2,29.62,NNW,333,1.0,4.0,32,0.00,,,0.00,288,WeatherCatV1.02B3,2013-09-05 00:33:00,
2013-09-04 17:38:00,92.2,58.0,29.62,NNW,336,2.0,4.0,32,0.00,,,0.00,272,WeatherCatV1.02B3,2013-09-05 00:38:00,
2013-09-04 17:43:00,91.6,58.4,29.62,NW,322,2.0,3.0,33,0.00,,,0.00,255,WeatherCatV1.02B3,2013-09-05 00:43:00,
2013-09-04 17:48:00,91.7,57.6,29.62,ENE,61,1.0,3.0,32,0.00,,,0.00,241,WeatherCatV1.02B3,2013-09-05 00:48:00,
2013-09-04 17:53:00,91.5,58.3,29.62,West,277,1.0,5.0,33,0.00,,,0.00,223,WeatherCatV1.02B3,2013-09-05 00:53:00,
2013-09-04 17:58:00,91.7,56.7,29.62,WNW,282,1.0,5.0,31,0.00,,,0.00,206,WeatherCatV1.02B3,2013-09-05 00:58:00,
2013-09-04 18:03:00,91.1,57.9,29.62,NNW,336,0.0,3.0,33,0.00,,,0.00,183,WeatherCatV1.02B3,2013-09-05 01:03:00,
2013-09-04 18:08:00,90.8,56.8,29.62,NW,308,1.0,4.0,32,0.00,,,0.00,163,WeatherCatV1.02B3,2013-09-05 01:08:00,
2013-09-04 18:13:00,90.5,57.4,29.62,WNW,282,0.0,3.0,33,0.00,,,0.00,142,WeatherCatV1.02B3,2013-09-05 01:13:00,
2013-09-04 18:18:00,90.2,58.0,29.62,West,272,1.0,4.0,34,0.00,,,0.00,123,WeatherCatV1.02B3,2013-09-05 01:18:00,
2013-09-04 18:23:00,89.9,56.9,29.62,NW,307,2.0,3.0,33,0.00,,,0.00,105,WeatherCatV1.02B3,2013-09-05 01:23:00,
2013-09-04 18:28:00,89.0,56.9,29.62,West,270,1.0,2.0,34,0.00,,,0.00,88,WeatherCatV1.02B3,2013-09-05 01:28:00,
2013-09-04 18:33:00,88.3,57.1,29.62,NW,314,0.0,3.0,35,0.00,,,0.00,21,WeatherCatV1.02B3,2013-09-05 01:33:00,
2013-09-04 18:38:00,87.5,57.2,29.62,NNW,331,0.0,1.0,36,0.00,,,0.00,19,WeatherCatV1.02B3,2013-09-05 01:38:00,
2013-09-04 18:43:00,87.2,57.7,29.62,West,273,0.0,1.0,37,0.00,,,0.00,18,WeatherCatV1.02B3,2013-09-05 01:43:00,
2013-09-04 18:48:00,86.7,58.0,29.62,West,277,0.0,1.0,38,0.00,,,0.00,16,WeatherCatV1.02B3,2013-09-05 01:48:00,
2013-09-04 18:53:00,86.4,57.0,29.62,West,277,0.0,0.0,37,0.00,,,0.00,14,WeatherCatV1.02B3,2013-09-05 01:53:00,
2013-09-04 18:58:00,86.0,57.4,29.62,NW,313,0.0,1.0,38,0.00,,,0.00,12,WeatherCatV1.02B3,2013-09-05 01:58:00,
2013-09-04 19:03:00,85.4,56.9,29.62,NW,313,0.0,0.0,38,0.00,,,0.00,11,WeatherCatV1.02B3,2013-09-05 02:03:00,
2013-09-04 19:08:00,85.0,57.2,29.62,NW,313,0.0,0.0,39,0.00,,,0.00,9,WeatherCatV1.02B3,2013-09-05 02:08:00,
2013-09-04 19:13:00,84.3,56.6,29.62,NW,313,0.0,0.0,39,0.00,,,0.00,5,WeatherCatV1.02B3,2013-09-05 02:13:00,
2013-09-04 19:18:00,83.4,57.2,29.62,NW,313,0.0,0.0,41,0.00,,,0.00,0,WeatherCatV1.02B3,2013-09-05 02:18:00,
2013-09-04 19:23:00,83.0,56.8,29.62,NW,313,0.0,0.0,41,0.00,,,0.00,0,WeatherCatV1.02B3,2013-09-05 02:23:00,
2013-09-04 19:28:00,81.9,57.8,29.62,NW,313,0.0,0.0,44,0.00,,,0.00,0,WeatherCatV1.02B3,2013-09-05 02:28:00,
2013-09-04 19:33:00,81.2,58.4,29.62,NW,313,0.0,0.0,46,0.00,,,0.00,0,WeatherCatV1.02B3,2013-09-05 02:33:00,
2013-09-04 19:38:00,80.3,58.8,29.62,NW,313,0.0,1.0,48,0.00,,,0.00,0,WeatherCatV1.02B3,2013-09-05 02:38:00,
2013-09-04 19:43:00,79.5,59.2,29.62,NW,313,0.0,0.0,50,0.00,,,0.00,0,WeatherCatV1.02B3,2013-09-05 02:43:00,
2013-09-04 19:48:00,79.2,58.9,29.62,SE,138,0.0,2.0,50,0.00,,,0.00,0,WeatherCatV1.02B3,2013-09-05 02:48:00,
2013-09-04 19:53:00,78.2,59.1,29.62,SE,138,0.0,0.0,52,0.00,,,0.00,0,WeatherCatV1.02B3,2013-09-05 02:53:00,
2013-09-04 19:58:00,77.4,59.4,29.62,SE,138,0.0,0.0,54,0.00,,,0.00,0,WeatherCatV1.02B3,2013-09-05 02:58:00,
2013-09-04 20:03:00,76.7,59.3,29.62,SE,138,0.0,0.0,55,0.00,,,0.00,0,WeatherCatV1.02B3,2013-09-05 03:03:00,
2013-09-04 20:08:00,75.9,59.1,29.62,SE,138,0.0,0.0,56,0.00,,,0.00,0,WeatherCatV1.02B3,2013-09-05 03:08:00,
2013-09-04 20:13:00,75.6,59.8,29.62,SE,138,0.0,0.0,58,0.00,,,0.00,0,WeatherCatV1.02B3,2013-09-05 03:13:00,
2013-09-04 20:18:00,74.8,59.5,29.62,SE,138,0.0,0.0,59,0.00,,,0.00,0,WeatherCatV1.02B3,2013-09-05 03:18:00,
2013-09-04 20:23:00,73.9,59.6,29.62,SE,138,0.0,0.0,61,0.00,,,0.00,0,WeatherCatV1.02B3,2013-09-05 03:23:00,
2013-09-04 20:28:00,73.4,59.6,29.62,South,191,0.0,0.0,62,0.00,,,0.00,0,WeatherCatV1.02B3,2013-09-05 03:28:00,
2013-09-04 20:33:00,72.6,58.8,29.62,WSW,248,0.0,0.0,62,0.00,,,0.00,0,WeatherCatV1.02B3,2013-09-05 03:33:00,
2013-09-04 20:38:00,72.1,59.2,29.62,WSW,248,0.0,0.0,64,0.00,,,0.00,0,WeatherCatV1.02B3,2013-09-05 03:38:00,
2013-09-04 20:43:00,72.3,59.4,29.62,WSW,248,0.0,0.0,64,0.00,,,0.00,0,WeatherCatV1.02B3,2013-09-05 03:43:00,
2013-09-04 20:48:00,72.1,59.7,29.62,WSW,248,0.0,0.0,65,0.00,,,0.00,0,WeatherCatV1.02B3,2013-09-05 03:48:00,
2013-09-04 20:53:00,71.9,59.5,29.62,WSW,248,0.0,0.0,65,0.00,,,0.00,0,WeatherCatV1.02B3,2013-09-05 03:53:00,
2013-09-04 20:58:00,71.5,59.1,29.62,WSW,248,0.0,0.0,65,0.00,,,0.00,0,WeatherCatV1.02B3,2013-09-05 03:58:00,
2013-09-04 21:01:00,71.3,58.9,29.62,WSW,248,0.0,0.0,65,0.00,,,0.00,0,WeatherCatV1.02B3,2013-09-05 04:01:00,
2013-09-04 21:06:00,70.9,58.5,29.62,WSW,248,0.0,0.0,65,0.00,,,0.00,0,WeatherCatV1.02B3,2013-09-05 04:06:00,
2013-09-04 21:11:00,70.4,58.5,29.62,WSW,248,0.0,0.0,66,0.00,,,0.00,0,WeatherCatV1.02B3,2013-09-05 04:11:00,
2013-09-04 21:16:00,70.4,58.9,29.62,WSW,248,0.0,0.0,67,0.00,,,0.00,0,WeatherCatV1.02B3,2013-09-05 04:16:00,
2013-09-04 21:21:00,70.1,58.6,29.62,WSW,248,0.0,0.0,67,0.00,,,0.00,0,WeatherCatV1.02B3,2013-09-05 04:21:00,
2013-09-04 21:26:00,70.3,59.2,29.62,WSW,248,0.0,0.0,68,0.00,,,0.00,0,WeatherCatV1.02B3,2013-09-05 04:26:00,
2013-09-04 21:31:00,70.5,59.0,29.62,WSW,248,0.0,0.0,67,0.00,,,0.00,0,WeatherCatV1.02B3,2013-09-05 04:31:00,
2013-09-04 21:36:00,69.5,58.0,29.62,WSW,248,0.0,0.0,67,0.00,,,0.00,0,WeatherCatV1.02B3,2013-09-05 04:36:00,
2013-09-04 21:41:00,69.3,59.5,29.62,WSW,248,0.0,0.0,71,0.00,,,0.00,0,WeatherCatV1.02B3,2013-09-05 04:41:00,
2013-09-04 21:46:00,69.2,59.4,29.62,WSW,248,0.0,0.0,71,0.00,,,0.00,0,WeatherCatV1.02B3,2013-09-05 04:46:00,
2013-09-04 21:51:00,68.9,59.1,29.62,WSW,248,0.0,0.0,71,0.00,,,0.00,0,WeatherCatV1.02B3,2013-09-05 04:51:00,
2013-09-04 21:56:00,69.3,59.9,29.62,WSW,248,0.0,0.0,72,0.00,,,0.00,0,WeatherCatV1.02B3,2013-09-05 04:56:00,
2013-09-04 22:01:00,68.7,58.9,29.62,WSW,248,0.0,0.0,71,0.00,,,0.00,0,WeatherCatV1.02B3,2013-09-05 05:01:00,
2013-09-04 22:06:00,68.4,59.0,29.62,WSW,248,0.0,0.0,72,0.00,,,0.00,0,WeatherCatV1.02B3,2013-09-05 05:06:00,
2013-09-04 22:11:00,68.6,59.6,29.62,WSW,248,0.0,0.0,73,0.00,,,0.00,0,WeatherCatV1.02B3,2013-09-05 05:11:00,
2013-09-04 22:16:00,68.5,59.1,29.62,WSW,248,0.0,0.0,72,0.00,,,0.00,0,WeatherCatV1.02B3,2013-09-05 05:16:00,
2013-09-04 22:21:00,67.9,58.5,29.62,WSW,248,0.0,0.0,72,0.00,,,0.00,0,WeatherCatV1.02B3,2013-09-05 05:21:00,
2013-09-04 22:26:00,68.1,59.1,29.62,WSW,248,0.0,0.0,73,0.00,,,0.00,0,WeatherCatV1.02B3,2013-09-05 05:26:00,
2013-09-04 22:31:00,67.9,59.3,29.62,WSW,248,0.0,0.0,74,0.00,,,0.00,0,WeatherCatV1.02B3,2013-09-05 05:31:00,
2013-09-04 22:36:00,67.5,59.3,29.62,WSW,248,0.0,0.0,75,0.00,,,0.00,0,WeatherCatV1.02B3,2013-09-05 05:36:00,
2013-09-04 22:41:00,67.1,58.5,29.62,WSW,248,0.0,0.0,74,0.00,,,0.00,0,WeatherCatV1.02B3,2013-09-05 05:41:00,
2013-09-04 22:46:00,67.2,59.4,29.62,WSW,248,0.0,0.0,76,0.00,,,0.00,0,WeatherCatV1.02B3,2013-09-05 05:46:00,
2013-09-04 22:51:00,67.2,59.4,29.62,WSW,248,0.0,0.0,76,0.00,,,0.00,0,WeatherCatV1.02B3,2013-09-05 05:51:00,
2013-09-04 22:56:00,67.1,59.3,29.62,WSW,248,0.0,0.0,76,0.00,,,0.00,0,WeatherCatV1.02B3,2013-09-05 05:56:00,
2013-09-04 23:01:00,66.5,58.7,29.62,WSW,248,0.0,0.0,76,0.00,,,0.00,0,WeatherCatV1.02B3,2013-09-05 06:01:00,
2013-09-04 23:06:00,66.5,58.7,29.62,WSW,248,0.0,0.0,76,0.00,,,0.00,0,WeatherCatV1.02B3,2013-09-05 06:06:00,
2013-09-04 23:11:00,66.3,58.1,29.62,WSW,248,0.0,0.0,75,0.00,,,0.00,0,WeatherCatV1.02B3,2013-09-05 06:11:00,
2013-09-04 23:16:00,66.4,58.6,29.62,WSW,248,0.0,0.0,76,0.00,,,0.00,0,WeatherCatV1.02B3,2013-09-05 06:16:00,
2013-09-04 23:21:00,66.0,57.8,29.62,WSW,248,0.0,0.0,75,0.00,,,0.00,0,WeatherCatV1.02B3,2013-09-05 06:21:00,
2013-09-04 23:26:00,65.8,58.4,29.62,WSW,248,0.0,0.0,77,0.00,,,0.00,0,WeatherCatV1.02B3,2013-09-05 06:26:00,
2013-09-04 23:31:00,66.2,58.8,29.62,WSW,248,0.0,0.0,77,0.00,,,0.00,0,WeatherCatV1.02B3,2013-09-05 06:31:00,
2013-09-04 23:36:00,66.5,58.7,29.62,WSW,248,0.0,0.0,76,0.00,,,0.00,0,WeatherCatV1.02B3,2013-09-05 06:36:00,
2013-09-04 23:41:00,66.5,59.1,29.62,WSW,248,0.0,0.0,77,0.00,,,0.00,0,WeatherCatV1.02B3,2013-09-05 06:41:00,
2013-09-04 23:46:00,66.2,58.8,29.62,WSW,248,0.0,0.0,77,0.00,,,0.00,0,WeatherCatV1.02B3,2013-09-05 06:46:00,
2013-09-04 23:51:00,66.0,58.6,29.62,WSW,248,0.0,0.0,77,0.00,,,0.00,0,WeatherCatV1.02B3,2013-09-05 06:51:00,
2013-09-04 23:56:00,65.6,57.8,29.62,WSW,248,0.0,0.0,76,0.00,,,0.00,0,WeatherCatV1.02B3,2013-09-05 06:56:00,